Flag for Israel Weather past 2 weeks in Ashdod, Israel

Now
93 °F

Sunny.


Feels Like: 105 °F
Forecast: 80 / 88 °F
Wind: 3 mph from North

Location: Ben Gurion International Airport

Current Time: Aug 4, 2015 at 11:17:10 AM

Latest Report: Aug 4, 2015 at 10:50 AM


Visibility: 10 mi

Pressure: 29.77 "Hg

Humidity: 56%

Dew point: 75 °F

Location of AshdodLocation

Historic Weather in Ashdod — Graph

°F

Ashdod temperature yesterday

Maximum temperature yesterday: 93 °F (at 10:50 AM)
Minimum temperature yesterday: 82 °F (at 11:20 PM)
Average temperature yesterday: 87 °F

Past Weeks' High & Low Weather Summary

 TemperatureHumidityPressure
High97 °F (Jul 24, 10:50 AM)89% (Jul 23, 5:50 AM)29.80 "Hg (Jul 23, 5:50 AM)
Low72 °F (Jul 24, 5:50 AM)28% (Jul 24, 10:20 AM)29.68 "Hg (Jul 20, 10:20 AM)
Average84 °F65%29.73 "Hg
* Reported Jul 20 10:20 AM — Aug 4 10:20 AM, Ashdod, Weather by CustomWeather, © 2015

Note: Actual official high and low records may vary slightly from our data, if they occured in-between our weather recording intervals... More about our weather records

Advertising

Ashdod weather history for previous 24 hours

 ConditionsComfort  
Time TempWeatherWind HumidityBarometerVisibility
10:20 AM
Tue, Aug 4
91 °FSunny.3 mph59%29.77 "Hg10 mi
9:50 AM90 °FSunny.3 mph63%29.77 "Hg10 mi
9:20 AM88 °FPassing clouds.3 mph66%29.77 "HgN/A
8:50 AM88 °FScattered clouds.3 mph66%29.77 "Hg6 mi
8:20 AM86 °FScattered clouds.5 mph70%29.77 "Hg6 mi
7:20 AM84 °FPartly sunny.5 mph74%29.77 "Hg4 mi
6:50 AM84 °FPassing clouds.6 mph74%29.77 "Hg4 mi
6:20 AM84 °FPassing clouds.6 mph74%29.77 "Hg4 mi
5:50 AM84 °FPassing clouds.5 mph74%29.77 "Hg6 mi
5:20 AM82 °FPassing clouds.3 mph79%29.74 "Hg6 mi
4:50 AM82 °FPassing clouds.5 mph79%29.74 "Hg6 mi
4:20 AM82 °FPassing clouds.2 mph84%29.74 "Hg6 mi
3:50 AM82 °FPassing clouds.5 mph84%29.74 "Hg6 mi
3:20 AM82 °FPassing clouds.6 mph84%29.74 "Hg6 mi
2:50 AM82 °FPassing clouds.6 mph84%29.74 "Hg6 mi
2:20 AM82 °FOvercast.6 mph84%29.74 "Hg6 mi
1:50 AM84 °FOvercast.6 mph79%29.74 "Hg5 mi
1:20 AM84 °FOvercast.6 mph79%29.74 "Hg5 mi
12:50 AM84 °FOvercast.5 mph84%29.77 "Hg6 mi
12:20 AM82 °FOvercast.7 mph89%29.77 "Hg6 mi
11:50 PM
Mon, Aug 3
82 °FPassing clouds.5 mph89%29.77 "HgN/A
11:20 PM82 °FPassing clouds.6 mph89%29.77 "HgN/A
10:50 PM84 °FClear.3 mph84%29.77 "Hg10 mi
10:20 PM84 °FClear.3 mph84%29.77 "Hg10 mi
9:50 PM84 °FClear.5 mph84%29.77 "Hg10 mi
9:20 PM84 °FClear.5 mph84%29.77 "Hg10 mi
8:50 PM84 °FPassing clouds.6 mph84%29.77 "HgN/A
8:20 PM84 °FPassing clouds.7 mph84%29.74 "HgN/A
7:50 PM86 °FPassing clouds.8 mph79%29.74 "HgN/A
7:20 PM86 °FPassing clouds.7 mph79%29.74 "HgN/A
6:50 PM88 °FPassing clouds.8 mph75%29.74 "HgN/A
6:20 PM88 °FPassing clouds.8 mph75%29.71 "HgN/A
5:50 PM90 °FSunny.10 mph71%29.71 "Hg10 mi
5:20 PM90 °FSunny.9 mph67%29.71 "Hg10 mi
4:50 PM91 °FSunny.10 mph63%29.71 "Hg10 mi
4:20 PM91 °FSunny.9 mph67%29.71 "Hg10 mi
3:50 PM91 °FSunny.10 mph67%29.71 "Hg10 mi
3:20 PM91 °FSunny.10 mph67%29.74 "Hg10 mi
2:50 PM93 °FSunny.12 mph59%29.71 "Hg10 mi
2:20 PM93 °FSunny.9 mph59%29.74 "Hg10 mi
1:50 PM93 °FSunny.10 mph59%29.74 "Hg10 mi
1:20 PM93 °FSunny.13 mph59%29.74 "Hg10 mi
12:50 PM91 °FSunny.12 mph67%29.74 "Hg10 mi
12:20 PM93 °FSunny.12 mph63%29.74 "Hg10 mi
11:50 AM93 °FSunny.8 mph63%29.74 "Hg10 mi
11:20 AM91 °FSunny.9 mph67%29.74 "Hg10 mi
Weather by CustomWeather, © 2015

See weather overviewHow to use our weather pages